Location: Cataure
(10.5167°N, 67.1000°W)
Time: 15:58:07
(UTC+00:00)

Cosmos 1674 Rocket - Pass Details

Date: 18 April 2024
Orbit: 600 x 626 km, 82.5° (Epoch: 18 May)

Event Time Altitude Azimuth Distance (km) Brightness Sun altitude
Rises 23:33:50 0° 348° (NNW) 2,898 7.4 -13.8°
Reaches altitude 10° 23:36:07 10° 343° (NNW) 1,991 6.6 -14.4°
Maximum altitude 23:40:24 51° 267° (W) 780 4.5 -15.4°
Drops below altitude 10° 23:44:40 10° 191° (S) 1,982 6.1 -16.4°
Sets 23:46:56 0° 186° (S) 2,884 6.9 -17.0°
